Lapse_Rate
6.5 6.5 6.5 6.5 6.5 6.5 6.5 6.5 6.5 6.5 6.5 6.5 6.5 6.5 6.0 4.9 4.2 4.3 4.1 3.5 2.8 2.4 2.0 1.7 1.4 1.1 0.7 0.5 0.2 0.1 0.1 -0.0 0.5 0.6 0.7 0.6 0.6 0.5 0.5 0.7 0.5 0.2 -0.2 -0.7
6.5 6.5 6.5 6.5 6.5 6.5 6.5 6.5 6.5 6.5 6.5 6.5 5.7 5.4 5.7 5.3 5.1 4.5 4.3 4.0 3.5 3.1 2.6 2.0 1.5 1.2 0.6 0.7 1.0 0.7 0.7 0.7 0.6 0.1 0.2 0.4 0.4 0.2 0.0 -0.4 -0.3 -0.1 -0.1 -0.2
6.5 6.5 6.5 6.5 6.5 6.5 6.5 6.5 6.5 6.5 6.5 6.5 6.5 6.4 6.2 5.5 4.7 4.8 4.6 4.3 3.7 3.1 2.5 2.1 1.9 1.2 1.1 0.6 0.3 0.7 0.8 1.2 0.9 0.8 0.8 0.5 0.3 0.0 -0.0 -0.1 -0.5 -0.4 -0.5 -0.2
6.5 6.5 6.5 6.5 6.5 6.5 6.5 6.5 6.5 6.5 6.5 6.4 6.3 5.1 4.3 4.0 4.1 3.8 3.5 3.6 3.5 3.1 2.7 2.5 1.6 1.2 0.7 0.7 0.5 0.5 0.5 0.7 0.8 0.7 1.0 0.8 0.5 0.5 0.0 -0.2 -0.2 -0.1 -0.1 -0.1
6.5 6.5 6.5 6.5 6.5 6.5 6.5 6.5 6.5 6.5 6.5 6.2 5.4 5.1 5.2 3.5 3.1 3.2 2.8 2.7 2.8 2.5 2.2 2.0 1.7 1.2 0.5 0.8 0.7 0.4 0.5 0.8 0.9 0.8 0.8 0.4 0.2 0.2 -0.3 -0.2 -0.4 -0.7 -0.7 -1.0
6.5 6.5 6.5 6.5 6.5 6.0 6.4 6.5 6.4 6.1 6.4 6.2 5.8 6.5 6.5 4.0 3.3 3.1 2.7 2.4 2.3 2.1 2.0 1.7 2.0 0.9 0.8 1.3 0.9 1.1 0.8 0.9 0.9 1.1 1.3 0.7 0.7 0.1 -1.1 -0.5 -0.9 -0.7 -0.7 -0.3
6.5 6.5 6.5 6.5 6.2 6.2 6.5 6.5 5.7 5.1 5.4 5.5 6.4 5.4 4.6 3.4 3.3 2.5 2.4 2.2 1.9 1.4 1.5 1.5 1.2 0.9 1.5 1.2 1.3 0.7 0.1 0.4 0.3 0.3 0.9 1.1 0.5 -0.7 -0.8 -0.6 -0.5 -0.3 0.1 0.3
6.5 6.5 6.5 6.1 6.3 6.5 6.1 5.1 4.7 4.6 4.5 4.3 4.2 4.4 4.3 3.7 2.9 2.4 2.1 1.8 1.8 1.4 1.3 1.6 1.6 1.4 2.0 2.1 1.6 0.7 0.6 0.3 0.4 0.5 1.2 1.0 0.6 -0.5 -0.2 -0.3 -0.3 -0.0 0.3 0.7
6.5 6.5 6.0 5.1 5.8 4.3 3.3 3.9 4.9 4.3 4.5 4.6 4.8 4.7 3.6 3.4 2.9 2.7 2.8 2.8 3.0 2.6 2.4 2.8 2.7 2.6 2.6 2.8 1.8 1.4 1.5 1.3 1.2 1.1 1.0 1.1 0.8 -0.1 -0.3 0.1 0.9 1.8 2.0 1.4
6.5 6.5 6.3 5.2 4.3 4.1 4.2 3.8 3.5 3.8 4.2 4.2 4.3 4.0 3.8 3.7 4.0 4.1 4.2 4.1 3.7 3.6 3.7 3.5 3.4 3.5 3.7 2.8 2.3 2.2 1.9 2.0 1.9 1.7 0.6 0.8 1.0 1.1 1.8 1.3 1.3 1.9 1.8 1.2
6.5 6.3 5.9 4.7 3.8 3.1 3.0 2.8 2.9 3.3 3.7 3.8 3.7 4.2 4.3 4.1 4.1 4.2 4.0 3.8 3.6 3.6 3.8 4.1 4.1 4.3 4.7 4.4 3.9 3.8 3.2 3.0 3.1 2.8 2.9 1.3 1.4 1.5 1.9 2.7 3.3 2.9 2.3 1.7
6.5 4.5 4.7 4.5 2.0 2.7 2.8 3.0 2.6 3.3 3.4 3.6 4.1 4.2 4.7 4.7 4.8 4.6 4.5 4.1 4.1 3.6 3.7 4.7 5.0 5.3 5.2 4.0 3.9 3.9 4.4 4.0 3.8 4.2 3.6 2.8 2.4 2.4 3.1 3.2 3.7 3.6 3.2 2.3
4.6 1.8 2.5 1.3 2.1 2.6 2.6 2.2 2.6 3.1 3.5 4.2 4.9 5.8 6.5 6.5 6.4 6.7 5.9 5.4 5.0 4.9 4.7 5.0 4.8 4.9 4.8 4.0 3.5 3.6 3.8 4.3 4.0 4.6 4.0 3.4 2.5 2.9 3.1 2.8 4.0 3.8 3.5 3.5
1.4 1.9 4.0 2.9 2.9 1.9 2.6 2.9 4.5 4.1 4.1 4.9 5.8 6.2 6.0 6.0 5.6 4.9 4.6 5.2 5.3 5.2 4.9 4.9 4.8 4.5 4.6 3.6 3.4 3.5 3.3 3.9 4.0 4.1 3.6 3.5 3.7 3.0 3.0 3.3 3.6 2.9 3.5 3.9
1.8 2.9 2.7 1.1 1.2 2.0 3.0 3.1 4.1 4.4 5.7 7.8 7.3 6.9 6.3 6.2 5.8 5.2 4.7 4.9 5.1 5.0 5.1 4.7 4.5 4.4 4.3 3.9 3.9 4.0 3.6 3.4 3.3 3.1 3.2 3.4 3.2 3.0 2.8 2.8 2.9 2.8 2.4 2.9
2.5 2.2 1.8 2.2 2.2 2.6 3.0 3.5 4.4 4.8 6.4 7.0 7.7 6.9 6.8 6.4 6.1 5.5 5.1 5.9 5.2 4.1 4.1 4.1 3.9 4.3 4.0 3.7 3.8 3.9 4.5 4.4 4.7 4.2 3.6 3.0 3.2 2.9 2.9 3.1 3.3 3.3 3.0 3.2
2.7 3.8 3.2 3.3 2.4 2.4 2.5 3.2 3.6 4.3 4.7 4.8 4.5 4.5 4.4 5.8 6.5 6.4 6.1 4.2 3.7 3.5 3.3 3.1 3.1 4.1 3.4 3.6 3.6 3.7 4.1 5.2 5.4 4.6 4.5 4.2 4.0 3.9 3.9 3.9 4.0 3.8 3.7 3.4
2.8 2.8 2.2 2.8 2.0 2.1 2.6 3.0 3.5 3.7 3.5 3.9 3.7 3.7 3.9 4.7 5.7 6.8 5.6 3.0 2.0 2.3 2.9 2.6 3.6 3.7 3.4 3.1 3.7 3.9 4.3 5.0 5.1 5.4 5.3 5.3 4.8 4.5 4.5 4.6 4.7 4.7 4.4 3.6
2.5 2.3 2.0 2.4 2.4 2.4 2.7 2.9 3.1 3.1 2.8 3.0 3.0 2.8 3.4 3.3 4.3 5.9 5.1 2.8 2.3 2.4 3.4 3.0 3.1 3.4 2.4 2.7 3.9 3.4 4.0 3.8 4.5 5.1 5.8 6.2 5.9 5.2 4.8 4.7 4.6 4.4 4.2 3.9
2.3 2.4 2.1 2.3 2.3 2.2 2.4 2.2 2.5 2.0 1.9 2.1 2.1 2.0 2.2 2.6 3.5 4.3 4.6 4.1 3.7 3.8 3.3 2.9 2.9 2.6 2.4 2.4 3.8 3.2 3.1 3.3 4.0 4.7 5.9 6.7 5.9 5.8 5.4 5.0 5.0 4.6 4.4 4.5
2.0 2.1 2.1 2.1 1.8 1.8 1.5 1.5 1.6 1.5 1.7 1.6 1.6 1.7 2.2 2.2 2.5 3.4 3.7 4.6 5.4 4.3 3.9 4.0 3.2 2.7 2.7 3.5 4.1 3.3 3.4 3.6 4.0 3.8 4.8 6.3 6.3 6.0 5.6 5.1 4.9 4.7 4.6 4.5
1.4 1.3 0.9 1.4 1.1 1.3 1.4 1.5 1.5 1.2 1.0 1.1 1.2 1.3 1.4 1.5 1.9 2.8 3.6 4.8 5.3 5.3 4.9 4.0 3.1 3.3 3.6 5.3 5.1 4.3 4.4 4.5 4.7 4.8 4.7 4.9 5.5 6.4 6.0 5.6 5.1 4.9 4.6 4.6
0.9 -1.5 -0.2 1.0 1.1 1.1 1.1 1.0 1.3 1.3 1.1 1.4 1.4 1.3 1.7 2.1 2.0 3.7 4.0 2.9 4.7 5.0 5.2 4.6 3.9 4.5 5.3 5.6 5.3 5.2 5.1 5.1 5.2 5.0 4.6 3.9 4.6 5.1 5.2 5.0 5.3 4.5 4.6 4.5
1.0 -1.6 -1.9 -1.4 -0.5 0.5 1.2 1.8 1.5 1.0 0.6 0.9 1.3 1.4 1.7 1.8 1.7 1.3 2.1 4.4 4.8 5.2 4.8 4.4 4.8 5.3 5.8 5.6 5.2 5.1 5.3 5.3 5.0 4.9 5.0 5.2 3.7 3.7 3.9 4.0 4.0 3.7 3.4 3.2
-1.4 -2.8 -2.9 -2.5 -0.0 0.9 0.2 -0.7 -1.3 -0.3 0.8 0.8 1.3 1.5 1.7 1.3 2.5 0.5 2.5 3.7 4.1 4.0 3.5 4.4 5.2 5.8 5.2 4.9 4.7 4.8 4.8 4.7 4.6 4.6 5.1 4.2 3.7 3.1 2.6 2.2 2.5 2.7 2.5 2.4
-0.2 -0.2 -0.4 -0.1 -0.1 -0.4 -0.4 -0.5 -0.1 0.5 0.7 1.0 1.3 1.2 1.3 1.4 1.5 3.1 2.8 2.7 2.7 2.9 3.0 3.1 3.3 3.4 3.9 4.0 4.2 4.3 4.7 4.4 5.2 5.0 4.6 4.0 3.6 3.5 2.9 2.4 2.1 2.0 2.2 2.0
-3.8 -0.8 -3.3 -0.6 -0.3 -0.8 -0.7 0.4 0.5 0.3 0.7 0.8 0.7 1.1 0.8 0.8 0.7 1.2 1.7 1.6 2.3 2.8 2.9 2.8 2.5 3.1 3.6 3.5 3.2 3.5 3.5 3.4 4.5 3.9 4.0 3.7 3.3 3.3 3.0 2.5 1.7 1.8 1.8 1.6
Wind_Speed
4 3 2 0 1 3 3 2 4 1 4 4 4 3 3 5 4 4 5 5 5 4 5 5 5 5 6 8 8 6 4 2 3 4 6 7 7 7 7 7 6 7 7 6
5 5 6 3 4 3 3 3 2 1 2 4 3 1 2 4 5 5 5 4 4 3 4 5 7 7 5 4 5 4 5 5 3 4 4 5 6 7 7 7 8 8 7 7
2 4 4 3 1 2 2 1 4 2 3 3 2 1 2 4 5 5 4 4 6 6 6 6 7 7 8 8 7 5 5 6 6 6 6 6 6 7 7 8 7 7 6 6
2 3 3 4 1 0 3 1 1 2 2 3 1 4 6 6 5 6 6 5 5 4 5 5 5 7 7 7 7 7 6 6 6 7 7 7 8 9 7 6 6 7 7 6
2 0 3 1 1 4 3 2 1 1 2 3 4 4 4 4 4 2 4 4 4 4 4 4 6 6 7 8 6 6 7 7 6 7 7 8 8 7 5 6 5 4 4 5
2 3 3 5 2 3 3 1 1 4 4 4 3 2 2 3 3 5 5 4 6 7 3 5 4 4 5 6 6 6 5 7 7 8 9 10 9 8 4 3 4 4 4 5
3 2 5 5 3 1 2 5 5 5 4 3 3 2 2 2 3 3 3 6 7 6 6 7 5 5 6 5 6 6 6 5 5 7 9 9 9 6 6 6 6 6 5 5
2 2 5 3 2 5 3 2 4 4 4 4 4 2 1 2 4 6 6 6 6 6 6 7 5 4 5 6 6 6 5 5 4 5 5 6 8 6 7 8 7 6 6 5
6 4 2 1 2 1 3 4 3 4 3 3 3 1 3 3 4 4 5 5 4 6 8 6 5 4 6 5 6 6 6 5 4 4 6 5 7 7 5 6 6 6 5 4
1 2 4 4 2 3 3 4 4 3 3 2 0 2 4 4 4 4 4 4 4 5 6 7 6 6 5 6 5 4 4 5 4 4 3 5 4 5 6 6 6 5 5 5
3 4 1 5 6 6 4 5 5 3 2 1 1 2 3 3 4 4 4 4 3 4 4 6 7 7 6 7 5 4 4 3 4 4 4 4 5 6 7 8 8 7 5 5
5 7 4 3 8 8 8 5 5 4 2 0 1 1 1 3 3 3 5 4 5 6 5 6 7 7 6 6 6 6 6 3 2 3 4 4 4 4 10 9 13 11 10 8
4 5 2 4 6 5 6 5 4 4 3 2 2 1 3 4 2 6 6 8 9 8 8 8 8 6 4 5 6 6 5 6 4 5 4 4 3 4 5 6 12 11 12 14
5 7 3 4 5 7 6 6 4 3 3 3 3 4 5 6 7 7 7 8 8 8 8 8 8 7 5 6 6 6 6 9 4 4 3 4 4 4 3 4 5 4 11 13
7 2 2 6 6 6 4 4 3 2 2 2 2 1 2 4 6 7 8 8 7 7 8 9 8 8 7 5 6 6 5 4 4 4 4 4 4 3 3 4 5 4 2 5
6 6 6 5 7 6 6 5 4 3 2 2 4 4 4 4 4 5 7 6 4 6 7 7 8 7 5 6 7 5 4 8 6 3 3 2 3 3 3 4 5 4 4 5
7 5 4 3 6 6 7 5 5 4 4 4 6 6 5 4 5 5 8 5 6 7 7 7 7 5 4 6 6 5 5 4 8 2 3 3 3 3 3 4 5 5 5 5
3 4 7 5 6 6 6 6 6 5 5 5 6 5 5 5 7 6 6 6 7 6 6 6 5 5 6 6 6 5 5 5 4 4 3 4 3 3 4 4 5 5 4 4
5 7 6 6 5 6 5 6 5 5 5 6 5 6 6 6 6 8 5 5 7 7 6 4 7 6 4 5 6 3 3 4 4 4 4 6 4 3 3 4 4 4 4 4
5 4 5 4 5 5 5 5 5 6 6 5 6 6 7 7 7 7 6 7 7 7 6 6 5 5 4 5 7 3 3 3 4 4 4 3 4 4 4 5 4 3 3 3
7 6 6 6 5 5 6 5 4 6 6 5 6 7 8 8 6 6 5 6 7 6 6 9 5 3 3 5 4 3 3 3 4 3 3 4 4 3 3 3 3 4 3 2
4 4 5 4 4 6 5 4 5 6 6 6 6 6 7 9 6 6 8 8 7 8 4 3 3 7 5 9 3 3 3 3 3 3 3 3 3 3 3 3 3 3 2 2
4 3 3 4 5 5 4 4 5 6 6 6 7 6 6 6 3 4 8 4 4 6 4 4 6 11 12 4 3 4 3 3 3 2 3 3 2 2 2 2 2 3 2 2
3 2 2 1 2 2 5 4 4 6 6 7 7 7 5 4 4 5 6 10 10 8 5 5 7 9 10 3 3 3 3 2 3 2 3 3 2 2 1 1 2 2 2 2
1 0 1 2 3 4 4 4 4 5 6 6 6 6 6 4 6 2 3 4 10 9 5 9 11 10 3 3 3 3 3 3 3 3 3 3 2 2 2 1 2 2 2 1
1 1 1 2 3 3 3 4 4 4 4 5 6 4 4 4 4 6 6 8 6 8 6 4 3 4 3 4 4 5 4 3 3 3 3 3 3 3 3 2 2 2 2 1
2 2 2 3 3 3 3 4 4 5 5 4 7 6 5 4 4 4 6 5 5 6 6 5 3 5 4 5 4 4 4 4 6 4 4 4 3 3 3 3 3 2 2 3
Wind_Direction
51 44 130 44 132 117 88 167 97 216 122 195 183 105 87 138 127 93 56 42 24 10 357 3 5 358 348 343 333 330 319 247 196 166 156 153 150 146 144 142 139 137 136 137
22 3 14 74 72 69 35 83 83 57 314 190 174 65 94 75 60 43 33 24 7 4 4 355 346 336 330 317 317 301 278 257 225 182 167 159 154 153 148 141 148 153 156 157
306 344 357 13 261 173 140 168 131 167 267 345 318 322 54 123 92 79 40 14 4 351 339 333 331 330 327 321 315 296 246 234 217 195 184 179 168 162 161 164 157 161 154 168
191 358 53 234 10 57 188 46 247 310 285 37 42 63 64 43 55 28 10 5 346 332 323 323 319 320 321 319 314 300 275 240 199 193 191 180 179 180 171 166 172 172 175 172
106 251 277 11 177 161 157 55 350 246 313 105 127 100 36 22 30 29 344 323 298 296 287 299 312 319 322 319 315 306 284 262 229 196 189 181 188 183 171 165 184 173 171 163
145 108 170 231 217 205 133 359 305 134 124 140 144 117 237 336 347 3 352 342 335 327 290 291 292 305 309 308 315 313 294 262 224 202 194 190 185 177 158 177 178 174 165 187
175 171 284 240 224 159 146 210 174 156 151 134 130 180 179 348 14 342 316 326 330 330 319 303 310 317 311 314 311 310 305 285 242 212 203 194 176 165 171 170 162 173 190 196
102 91 276 155 94 167 198 141 164 152 154 129 144 161 108 351 352 338 339 335 338 335 328 316 316 315 308 307 309 310 310 301 263 213 197 177 176 168 171 167 171 181 192 200
179 209 233 147 210 96 155 146 177 149 146 127 128 97 338 315 331 321 331 332 333 335 326 333 333 323 304 297 317 316 316 308 280 219 171 172 171 163 156 170 177 190 196 198
130 198 207 187 178 148 170 139 121 119 124 97 250 320 304 308 313 314 317 321 320 334 338 332 331 321 298 303 310 314 316 316 303 244 192 170 166 171 182 182 186 185 194 201
268 260 272 240 215 158 135 118 112 96 105 107 314 319 295 319 309 312 311 306 316 321 318 316 319 324 329 339 328 311 308 319 293 279 236 192 194 187 196 201 193 189 198 195
215 203 164 212 179 157 156 164 148 154 162 281 163 272 268 317 329 326 325 317 323 315 304 312 319 322 328 350 349 328 303 277 275 266 257 226 199 208 221 211 208 215 202 195
196 147 99 106 128 132 149 157 158 166 197 234 292 309 332 316 309 327 323 324 323 321 319 315 314 321 348 348 338 326 321 315 298 267 251 238 213 210 215 220 231 228 229 226
143 120 81 199 190 170 146 163 155 135 110 90 353 348 345 330 329 330 320 325 317 320 315 322 323 318 340 335 325 318 314 310 306 298 266 260 238 217 211 209 219 222 231 229
173 34 133 128 121 149 148 148 162 199 208 263 191 238 266 302 302 307 307 308 309 304 317 318 315 312 320 324 317 315 311 304 309 301 290 283 263 233 214 217 229 234 205 234
143 118 132 141 159 167 177 192 208 220 203 251 282 244 238 245 263 278 289 297 307 299 292 291 295 302 311 311 313 308 301 308 315 314 313 301 269 248 236 227 228 228 218 227
126 161 172 176 189 194 203 207 204 217 229 235 254 257 246 255 265 274 296 308 290 280 279 277 276 292 297 298 308 309 312 297 301 294 304 308 303 284 259 244 238 231 234 216
139 149 171 165 182 196 210 215 220 230 233 247 259 258 265 263 261 274 282 282 287 286 277 274 275 284 283 281 290 294 302 311 317 312 308 297 288 280 276 263 251 244 246 234
165 150 162 170 180 181 197 221 225 232 244 247 255 252 246 254 257 266 259 268 284 292 290 258 273 278 280 286 294 288 299 299 293 298 305 310 308 288 279 275 263 250 243 235
154 156 168 185 185 192 220 229 233 249 256 255 260 267 262 257 254 257 258 260 248 259 267 273 263 256 268 278 290 274 283 291 285 293 297 310 313 315 328 329 316 285 260 243
177 180 191 199 220 234 234 238 239 261 273 260 254 258 259 264 253 253 255 275 270 240 250 268 251 242 246 266 264 260 274 282 287 283 301 305 311 319 331 345 348 350 338 315
170 187 212 220 237 265 258 251 247 263 269 274 263 256 260 268 253 259 239 246 279 278 261 259 257 253 250 264 239 244 261 275 288 298 312 315 320 326 326 338 344 348 357 359
169 186 214 230 245 256 295 277 261 263 269 271 270 266 257 262 238 256 286 251 233 264 264 252 260 259 261 263 234 232 243 268 282 288 300 304 315 309 313 330 346 348 348 6
171 204 230 278 318 300 282 283 274 281 271 271 269 260 257 277 277 222 247 272 287 294 274 263 276 263 264 227 239 237 244 261 264 268 277 307 291 299 303 312 326 346 7 25
159 97 90 13 301 277 286 288 296 290 295 289 280 277 257 229 230 247 257 289 291 291 285 281 280 270 243 219 230 245 250 248 258 265 277 277 277 281 290 279 280 282 259 261
119 39 321 279 278 309 312 319 300 295 301 304 297 271 277 266 268 272 276 278 282 279 276 268 260 254 231 226 231 243 247 239 247 256 257 259 267 268 275 272 275 297 297 276
49 78 25 7 25 359 333 316 317 312 311 293 289 290 278 291 288 276 263 263 263 274 277 273 257 261 240 235 238 247 242 237 239 224 235 237 240 242 240 241 245 245 234 236